www.pogodaiklimat.ru

Погода и климат >> Архив погоды >> Россия >> Красноярский край >> Туруханск


АРХИВ ПОГОДЫ в Туруханске

Время (UTC), дата Ветер
(напр.,м/с)
 
Видим.   Явления Облачность Т
(С)
Тd
(С)
f
(%)
Тe
(С)
Тes
(С)
Комфортность P
(гПа)
Po
(гПа)
Тmin
(С)
Tmax
(С)
R
(мм)
R24
(мм)
S
(см)
06 13.02 Ю 4 2000 м ливневой снег {метель} 9/6 300 м
[Cb cap Cs]
-15.8 -18.5 80 -24 -24 1021.5 1015.8
09 13.02 Ю 4 4000 м слаб. ливневой снег {метель} 9/9 300 м
[Cb cap]
-16.2 -18.8 80 -24 -24 1022.1 1016.4
12 13.02 Ю 5
{10}
4000 м слаб. ливневой снег {метель} 10/10 300 м
[Cb cap]
-16.3 -18.9 80 -25 -25 1023.0 1017.3 -15.6 2
15 13.02 Ю 4 4000 м слаб. ливневой снег {метель} 10/10 300 м
[Cb cap]
-16.9 -19.5 80 -25 -25 1023.2 1017.5
18 13.02 Ю 6-10
{11}
4000 м слаб. ливневой снег {метель} 10/10 300 м
[Cb cap]
-16.4 -19.0 80 -26 -26 1022.8 1017.1
21 13.02 Ю 7-11
{11}
4000 м слаб. ливневой снег {метель} 10/10 300 м
[Cb cap]
-16.1 -18.8 80 -27 -27 1021.4 1015.7
00 14.02 Ю 5
{11}
4000 м слаб. ливневой снег {метель} 10/10 300 м
[Cb cap]
-16.4 -19.0 80 -26 -26 1019.3 1013.7 -17.1 0.4 88
03 14.02 Ю 8-11
{14}
2000 м ливневой снег {метель} 10/10 300 м
[Cb cap]
-15.0 -17.7 80 -26 -26 1017.7 1012.1
06 14.02 Ю 6-10
{11}
2000 м ливневой снег {метель} 10/10 300 м
[Cb cap]
-14.3 -17.0 80 -24 -24 1016.1 1010.5
09 14.02 Ю 5
{13}
1000 м ливневой снег {метель} 10/10 300 м
[Cb cap]
-13.0 -15.0 85 -21 -21 1014.9 1009.3
12 14.02 Ю 6-10
{11}
1000 м ливневой снег {метель} 10/10 300 м
[Cb cap]
-12.2 -14.2 85 -21 -21 1012.6 1007.1 -12.0 3
15 14.02 Ю 7-12
{12}
1000 м ливневой снег {метель} 10/10 300 м
[Cb cap]
-10.7 -12.0 90 -20 -20 1009.3 1003.8
18 14.02 Ю 6-10
{12}
1000 м ливневой снег {метель} 10/10 300 м
[Cb cap]
-9.4 -11.0 88 -18 -18 1005.9 1000.4
21 14.02 Ю 5
{11}
2000 м ливневой снег {метель} 10/10 300 м
[Cb cap]
-7.8 -9.6 87 -15 -15 1004.6 999.1
00 15.02 Ю 7-10
{13}
1000 м ливневой снег {метель} 10/10 300 м
[Cb cap]
-6.5 -7.7 91 -15 -15 1003.2 997.8 -8.0 4 97
03 15.02 ЮЗ 6-11
{11}
1000 м ливневой снег {метель} 10/10 300 м
[Cb cap]
-6.2 -8.1 86 -14 -14 1002.4 997.0
06 15.02 ЮЗ 7-12
{12}
1000 м ливневой снег {метель} 10/8 300 м
[Cb cap As trans]
-5.2 -7.3 85 -14 -14 1002.6 997.2
09 15.02 ЮЗ 5
{11}
2000 м слаб. ливневой снег {метель} 10/10 300 м
[Cb cap]
-5.3 -7.4 85 -13 -13 1004.4 999.0
12 15.02 ЮЗ 4 2000 м слаб. ливневой снег {метель} 9/9 300 м
[Cb cap]
-6.6 -8.2 88 -13 -13 1006.1 1000.7 -5.1 2
15 15.02 СЗ 6-11
{11}
500 м ливневой снег {метель} 10/10 300 м
[Cb cap]
-10.8 -12.8 85 -19 -19 1007.8 1002.3
18 15.02 З 2 20 км {ливн. осадки, метель} 9/4 600 м
[Sc Ci fib]
-20.3 -23.6 75 -26 -26 1011.7 1006.0
21 15.02 Ю 1 20 км 8/4 600 м
[Cu med, cong Ci fib]
-25.9 -28.4 79 -30 -30 1013.3 1007.4
00 16.02 В 1 20 км ледяные иглы {снег} 6/0
[Ci fib]
-31.2 -33.0 84 -35 -35 опасность
обморожения
1012.8 1006.8 -31.4 0.8 99
03 16.02 СВ 2 20 км {снег} 6/3 600 м
[Sc Ac trans Ci fib]
-26.2 -29.4 74 -33 -33 опасность
обморожения
1010.5 1004.7 -31.6
06 16.02 СВ 3 20 км {снег} 9/4 600 м
[Sc Cs]
-21.2 -23.7 80 -29 -29 1007.2 1001.5
09 16.02 СВ 3 1000 м снег 10/10 300 м
[Sc]
-18.0 -20.6 80 -25 -25 1004.4 998.7
12 16.02 В 3 10 км слаб. снег 10/10 300 м
[Sc]
-15.6 -17.5 85 -22 -22 1002.7 997.1 -15.4 1
15 16.02 В 2 4000 м слаб. ливневой дождь со снегом 10/10 300 м
[Cb cap]
-10.3 -12.3 85 -15 -15 1001.3 995.8
18 16.02 ЮЗ 1 4000 м слаб. ливневой дождь со снегом 10/10 300 м
[Cb cap]
-14.0 -15.3 90 -16 -16 1001.1 995.5
21 16.02 ЮЗ 1 4000 м слаб. ливневой дождь со снегом 10/10 300 м
[Cb cap]
-17.0 -18.9 85 -20 -20 1001.1 995.5
00 17.02 Ю 1 4000 м слаб. ливневой дождь со снегом 10/10 300 м
[Cb cap]
-19.0 -20.9 85 -22 -22 1001.9 996.2 -19.4 2 99
03 17.02 З 2 4000 м слаб. снег 9/3 600 м
[Sc Cs]
-21.2 -23.1 85 -27 -27 1003.5 997.8 -21.6
06 17.02 Ю 2 4000 м слаб. снег 9/3 600 м
[Sc Cs]
-20.7 -22.6 85 -27 -26 1004.4 998.7
09 17.02 Ю 1 10 км слаб. снег 9/3 600 м
[Sc Cs]
-18.1 -20.7 80 -21 -21 1005.1 999.4
12 17.02 Ю 2 20 км {снег} 8/3 600 м
[Sc Ci fib]
-19.8 -21.7 85 -26 -26 1005.3 999.6 -17.9 0.4
15 17.02 В 2 10 км слаб. снег 10/3 600 м
[Sc Cs]
-20.2 -22.1 85 -26 -26 1004.4 998.7
18 17.02 В 2 10 км слаб. снег 10/3 600 м
[Sc Cs]
-19.4 -21.3 85 -25 -25 1003.1 997.4
21 17.02 В 2 10 км слаб. снег 10/3 600 м
[Sc Cs]
-18.4 -20.3 85 -24 -24 1001.7 996.0
00 18.02 В 2 10 км слаб. снег 9/0
[Ac trans Cs]
-19.8 -21.7 85 -26 -26 1000.5 994.9 -22.2 0.2 101
03 18.02 В 2 10 км слаб. снег 9/0
[Ac trans Cs]
-19.5 -21.4 85 -25 -25 1000.0 994.4
06 18.02 В 2 10 км слаб. снег 9/3 600 м
[Sc Ac trans Cs]
-16.1 -18.0 85 -21 -21 999.5 994.0
09 18.02 В 2 10 км слаб. снег 9/4 600 м
[Sc Ac trans Cs]
-14.4 -16.4 85 -19 -19 999.9 994.4
12 18.02 СВ 1 10 км слаб. снег 9/6 600 м
[Sc Ac trans Cs]
-17.0 -18.9 85 -20 -20 1000.9 995.3 -14.2 0.3
15 18.02 В 1 10 км слаб. снег 9/4 600 м
[Sc Cs]
-17.4 -19.3 85 -20 -20 1001.6 996.0
18 18.02 В 2 10 км слаб. снег 9/4 600 м
[Sc Cs]
-18.7 -20.6 85 -24 -24 1002.6 996.9
21 18.02 В 2 10 км слаб. снег 9/4 600 м
[Sc Cs]
-20.5 -22.4 85 -26 -26 1003.6 997.9
00 19.02 ЮВ 1 10 км слаб. снег 9/4 600 м
[Sc Cs]
-21.8 -23.6 85 -25 -25 1004.7 999.0 -22.6 0.3 102
03 19.02 ЮВ 1 10 км слаб. снег 9/4 600 м
[Sc Cs]
-19.7 -21.6 85 -23 -23 1005.8 1000.1 -22.9
06 19.02 ЮВ 1 4000 м слаб. ливневой снег 9/6 300 м
[Cb cap Cs]
-17.8 -19.7 85 -21 -20 1006.4 1000.7
09 19.02 ЮВ 2 4000 м слаб. ливневой снег 9/6 300 м
[Cb cap Cs]
-14.6 -16.4 86 -20 -19 1006.6 1001.0
12 19.02 В 1 10 км слаб. ливневой снег 9/8 300 м
[Cb cap Cs]
-16.2 -18.1 85 -19 -19 1007.3 1001.7 -14.4 0.6
15 19.02 ЮВ 1 4000 м слаб. ливневой снег 10/10 300 м
[Cb cap]
-16.1 -18.0 85 -19 -19 1007.1 1001.5
18 19.02 В 1 10 км слаб. ливневой снег 10/10 300 м
[Cb cap]
-14.6 -16.6 85 -17 -17 1007.2 1001.6
21 19.02 В 1 10 км слаб. ливневой снег 10/10 300 м
[Cb cap]
-13.7 -15.7 85 -16 -16 1006.6 1001.0
00 20.02 В 2 4000 м слаб. ливневой снег 9/9 300 м
[Cb cap]
-13.8 -15.8 85 -19 -19 1006.5 1000.9 -17.1 0.6 105
03 20.02 Ю 3 4000 м слаб. ливневой снег 9/9 300 м
[Cb cap]
-12.6 -14.6 85 -19 -19 1006.8 1001.3

 

Местоположение метеостанции Туруханск (Красноярский край, Россия): широта 65.78 долгота 87.93 высота над уровнем моря 38 м.

В архиве по умолчанию представлена погода в Туруханске за последнюю неделю. Архивные данные за месяц целиком и за предыдущие месяцы, начиная с января 2011 года, Вы можете получить, выбрав интересующий диапазон дат из раскрывающегося списка и нажав кнопку "Ввод!".


*Определитесь, кто Вы:
робот инопланетянин человек

Внимание! Время в таблицах - всемирное. Для получения местного времени необходимо прибавить поправку, которая равна 7 ч.

Смотрите также архив погоды в соседних городах и на ближайших метеорологических станциях:

Погода в Курейке (Красноярский край, Россия) (83 км)
Погода в Большом Пороге (Эвенкия, Россия) (98 км)
Погода в Светлогорске (Красноярский край, Россия) (132 км)
Погода в Верещагино (Красноярский край, Россия) (174 км)
Погода в Горбиачине (Красноярский край, Россия) (189 км)
Погода в Игарке (Красноярский край, Россия) (197 км)
Погода в Советской Речке (Красноярский край, Россия) (218 км)
Погода в Красноселькупске (Ямало-Ненецкий АО, Россия) (251 км)
Погода в Снежногорске (Красноярский край, Россия) (258 км)
Погода в Агате (Эвенкия, Россия) (276 км)

Пояснения к столбцам:

Ветер - указаны скорость ветра в м/с - средняя за 10 мин, порывы в срок и между сроками (в фигурных скобках) и направление, откуда дует ветер: С - северный, СВ - северо-восточный, В - восточный, ЮВ - юго-восточный, Ю - южный, ЮЗ - юго-западный, З - западный, СЗ - северо-западный.
Видимость - горизонтальная дальность видимости в метрах или километрах. При видимости от 1 до 10 км при отсутствии осадков обычно наблюдается дымка, при ухудшении видимости до 1 км и менее - туман. В сухую погоду видимость может ухудшаться дымом, пылью или мглою.
Явления - указаны атмосферные явления, наблюдавшиеся в срок или в последний час перед сроком; фигурными скобками обозначены явления, наблюдавшиеся между сроками (за 1-3 часа до срока); квадратными скобками обозначены град или гололедные отложения с указанием их диаметра в мм.
Облачность - указаны через наклонную черту общая и нижняя облачность в баллах и высота нижней границы облаков в метрах; квадратными скобками обозначены формы облаков: Ci - перистые, Cs - перисто-слоистые, Cc - перисто-кучевые, Ac - высококучевые, As - высокослоистые, Sc - слоисто-кучевые, Ns - слоисто-дождевые, Cu - кучевые, Cb - кучево-дождевые. Подробнее классификацию облаков см. в Атласе облаков (PDF).
T - Температура воздуха - температура, измеренная на высоте 2 м над землей.
Td - Температура точки росы - температура, при понижении до которой содержащийся в воздухе водяной пар достигнет насыщения.
f - Относительная влажность воздуха - влажноcть воздуха, измеренная на высоте 2 м над землей.
Te - Эффективная температура - температура, которую ощущает одетый по сезону человек в тени. Характеристика душности погоды. При расчете учитывается влияние влажности воздуха и скорости ветра на теплоощущения человека.
Tes - Эффективная температура на солнце - температура, которую ощущает человек, с поправкой на солнечный нагрев. Характеристика знойности погоды. Зависит от высоты солнца над горизонтом, облачности и скорости ветра. Ночью, в пасмурную погоду, а также при ветре 12 м/с и более поправка равна нулю.
P - Атмосферное давление - приведенное к уровню моря атмосферное давление.
Po - Атмосферное давление - измеренное на уровне метеостанции атмосферное давление.
Tmin - Минимальная температура - минимум температуры воздуха на высоте 2 м над землей.
Tmax - Максимальная температура - максимум температуры воздуха на высоте 2 м над землей.
R - Количество осадков - Количество выпавших осадков за период времени, мм. При наведении курсора мыши на число - период времени, за который выпало указанное количество осадков.
R24 - Количество осадков - Количество выпавших осадков за 24 часа, мм.
S - Снежный покров - Высота снежного покрова, см. При наведении курсора мыши на число - состояние снежного покрова и степень покрытия местности в баллах.